Terminal Aerodrome Forecast
Issued by NWS Twin Cities, MN

Home | Current Version | Previous Version | Text Only | Print | Product List | Glossary Off
Versions: 1 2 3 4 5 6 7 8 9 10 11 12 13 14 15 16 17 18 19 20 21 22 23 24 25 26 27 28 29 30 31 32

000
FTUS43 KMPX 292057 AAA
TAFMSP
TAF AMD
KMSP 292057Z 2921/3024 32015G25KT P6SM OVC030
      TEMPO 2921/2924 SCT030
     FM300000 33012G18KT P6SM SCT030
     FM300300 35010KT P6SM SKC
     FM300900 VRB03KT P6SM SCT100
     FM301500 14005KT P6SM BKN100=

USA.gov is the U.S. government's official web portal to all federal, state and local government web resources and services.